CW1234 Weather Reports


time (UTC)temp
C
wind
direction
speed
KPH
gust
KPH
rain 1hr
cm
rain 24hr
cm
rain mn
cm
humidity
%
barometer
mb
20200225223249 -7 341 4.8 12.9 0.00 0.00 0.00 47
20200225222248 -7 225 12.9 12.9 0.00 0.00 0.00 51
20200225221248 -7 294 8.0 12.9 0.00 0.00 0.00 48
20200225220248 -7 271 8.0 8.0 0.00 0.00 0.00 48
20200225215248 -7 285 8.0 9.7 0.00 0.00 0.00 53
20200225214248 -7 218 8.0 16.1 0.00 0.00 0.00 51
20200225212248 -7 266 6.4 14.5 0.00 0.00 0.00 63
20200225211248 -7 247 12.9 12.9 0.00 0.00 0.00 57
20200225210249 -7 303 3.2 3.2 0.00 0.00 0.00 63
20200225205247 -7 253 3.2 6.4 0.00 0.00 0.00 64
20200225202247 -8 246 8.0 8.0 0.00 0.00 0.00 59
20200225195247 -7 322 11.3 11.3 0.00 0.00 0.00 49
20200225191246 -7 298 8.0 16.1 0.00 0.00 0.00 66
20200225190246 -7 343 16.1 16.1 0.00 0.00 0.00 55
20200225185246 -6 227 8.0 16.1 0.00 0.00 0.00 46
20200225180245 -7 250 16.1 16.1 0.00 0.00 0.00 47
20200225172245 -7 295 4.8 17.7 0.00 0.00 0.00 50
20200225170245 -8 270 11.3 11.3 0.00 0.00 0.00 54
20200225155245 -8 278 12.9 14.5 0.00 0.00 0.00 58
20200225154244 -8 276 4.8 12.9 0.00 0.00 0.00 57
20200225153314 -7 342 8.0 12.9 0.00 0.00 0.00 52
20200225152244 -7 306 8.0 11.3 0.00 0.00 0.00 45
20200225151244 -7 279 8.0 17.7 0.00 0.00 0.00 45
20200225145244 -7 189 8.0 8.0 0.00 0.00 0.00 55
20200225143243 -8 205 4.8 8.0 0.00 0.00 0.00 56
20200225140247 -8 183 8.0 8.0 0.00 0.00 0.00 55
20200225135243 -8 153 8.0 11.3 0.00 0.00 0.00 53
20200225133243 -8 219 8.0 12.9 0.00 0.00 0.00 53
20200225132243 -8 256 6.4 12.9 0.00 0.00 0.00 53
20200225130243 -7 173 6.4 14.5 0.00 0.00 0.00 52
20200225124242 -7 24 11.3 11.3 0.00 0.00 0.00 52
20200225123242 -7 299 8.0 11.3 0.00 0.00 0.00 55
20200225122243 -7 322 6.4 12.9 0.00 0.00 0.00 52
20200225110241 -7 295 0.0 6.4 0.00 0.00 0.00 35
20200225104241 -6 336 6.4 6.4 0.00 0.00 0.00 25
20200225100241 -6 225 4.8 4.8 0.00 0.00 0.00 22
20200225095241 -6 218 3.2 6.4 0.00 0.00 0.00 20
20200225094241 -6 195 3.2 4.8 0.00 0.00 0.00 20
20200225093240 -6 268 0.0 8.0 0.00 0.00 0.00 20
20200225092241 -6 199 4.8 4.8 0.00 0.00 0.00 20
20200225091240 -6 184 3.2 3.2 0.00 0.00 0.00 20
20200225085240 -6 204 0.0 0.0 0.00 0.00 0.00 20
20200225082239 -6 209 0.0 3.2 0.00 0.00 0.00 20
20200225071239 -5 199 4.8 6.4 0.00 0.00 0.00 20
20200225070240 -5 180 4.8 6.4 0.00 0.00 0.00 20
20200225065239 -5 292 4.8 8.0 0.00 0.00 0.00 17
20200225062308 -5 192 4.8 8.0 0.00 0.00 0.00 20
20200225061238 -5 179 4.8 8.0 0.00 0.00 0.00 20
20200225050238 -5 131 3.2 8.0 0.00 0.00 0.00 17
20200225044238 -5 164 6.4 6.4 0.00 0.00 0.00 20
20200225043237 -5 128 4.8 4.8 0.00 0.00 0.00 20
20200225042237 -5 187 3.2 8.0 0.00 0.00 0.00 20
20200225041237 -5 207 4.8 6.4 0.00 0.00 0.00 19
20200225040239 -5 228 3.2 6.4 0.00 0.00 0.00 19
20200225030237 -4 178 4.8 8.0 0.00 0.00 0.00 19
20200225022236 -3 196 6.4 8.0 0.00 0.00 0.00 19
20200225014236 -3 183 3.2 8.0 0.00 0.00 0.00 19
20200225010236 -2 258 8.0 8.0 0.00 0.00 0.00 16
20200225003236 -1 292 4.8 6.4 0.00 0.00 0.00 18
20200225002305 -1 298 6.4 8.0 0.00 0.00 0.00 15
20200225000236 0 16 3.2 6.4 0.00 0.00 0.00 15